(297546) = 1999 GT63 = 2001 QB144

Discovered at Kitt Peak on 2001-08-21 by Spacewatch.

Orbit

Orbit type: Main Belt

Note: WebGL enabled browser required.

epoch2024-03-31.0
epoch JD2460400.5
perihelion date2022-03-25.41779
perihelion JD2459663.91780
argument of perihelion (°)237.09130
ascending node (°)177.92329
inclination (°)1.84526
eccentricity0.0710756
perihelion distance (AU)2.6933649
Tisserand w.r.t. Jupiter3.3
ΔV w.r.t. Earth (km/sec)10.2
semimajor axis (AU)2.8994448
mean anomaly (°)147.04594
mean daily motion (°/day)0.19963280
aphelion distance (AU)3.106
period (years)4.94
P-vector [x]0.57335210
P-vector [y]0.76204533
P-vector [z]0.30092239
Q-vector [x]-0.81930825
Q-vector [y]0.53275532
Q-vector [z]0.21190979
absolute magnitude16.57
phase slope0.15
uncertainty0
referenceE2024-H23
observations used324
oppositions15
arc length (days)9134
first opposition used1999
last opposition used2024
residual rms (arc-secs)0.75
perturbers coarse indicatorM-v
perturbers precise indicator003Ek
first observation date used1999-04-14.0
last observation date used2024-04-16.0
computer nameMPCLINUX
JD of orbit computation2456819.491158
perihelion JD uncertainty (days)2.9471E-04
argument of perihelion uncertainty (°)1.6303E-04
ascending node uncertainty (°)1.5127E-04
inclination uncertainty (°)8.7457E-06
eccentricity uncertainty 6.3663E-08
perihelion distance uncertainty (AU)1.7222E-07
Minimum Orbit Intersection Distances (in AU)
for orbit epoch: 2460400.5, reference: E2024-H23
Mercury2.37862
Venus1.97111
Earth1.7055
Mars1.15742
Jupiter2.14436
Saturn6.29836
Uranus15.4549
Neptune27.1056

Observations

316 total observations over interval: 1999 04 14.23381 – 2023 01 24.699037
These data are available for download (format description).

Date (UT) J2000 RA J2000 Dec Magn Location Ref
1999 04 14.23381 11 59 37.03 +00 30 01.7 21.1 V 691 – Steward Observatory, Kitt Peak-Spacewatch MPC 54921
1999 04 14.25492 11 59 36.22 +00 30 07.0 21.5 V 691 – Steward Observatory, Kitt Peak-Spacewatch MPC 54921
1999 04 14.27565 11 59 35.39 +00 30 12.8 21.3 V 691 – Steward Observatory, Kitt Peak-Spacewatch MPC 54921
2001 08 21.40600 23 36 54.71 -01 48 17.0 21.2 V 691 – Steward Observatory, Kitt Peak-Spacewatch MPS 33688
2001 08 21.42759 23 36 53.95 -01 48 22.5 21.2 V 691 – Steward Observatory, Kitt Peak-Spacewatch MPS 33688
2001 08 21.44869 23 36 53.20 -01 48 27.8 21.0 V 691 – Steward Observatory, Kitt Peak-Spacewatch MPS 33688
2001 08 27.32083 23 33 19.41 -02 14 40.4 21.2 V 691 – Steward Observatory, Kitt Peak-Spacewatch MPS 33688
2001 08 27.34204 23 33 18.55 -02 14 46.4 21.0 V 691 – Steward Observatory, Kitt Peak-Spacewatch MPS 33688
2001 08 27.36333 23 33 17.69 -02 14 52.8 20.9 V 691 – Steward Observatory, Kitt Peak-Spacewatch MPS 33688
2001 09 12.25663 23 21 44.94 -03 39 02.0 19.6   704 – Lincoln Laboratory ETS, New Mexico MPS 37813
2001 09 12.28562 23 21 43.59 -03 39 11.6 19.5   704 – Lincoln Laboratory ETS, New Mexico MPS 37813
2001 09 12.30011 23 21 42.84 -03 39 15.7 19.2   704 – Lincoln Laboratory ETS, New Mexico MPS 37813
2001 09 12.31470 23 21 42.21 -03 39 19.8 20.3   704 – Lincoln Laboratory ETS, New Mexico MPS 37813
2001 09 12.34668 23 21 40.68 -03 39 30.7 20.0   704 – Lincoln Laboratory ETS, New Mexico MPS 37813
2001 09 12.36080 23 21 39.96 -03 39 35.4 20.3   704 – Lincoln Laboratory ETS, New Mexico MPS 37813
2001 09 12.37491 23 21 39.39 -03 39 40.1 20.3   704 – Lincoln Laboratory ETS, New Mexico MPS 37813
2001 09 12.38903 23 21 38.69 -03 39 44.6 20.1   704 – Lincoln Laboratory ETS, New Mexico MPS 37813
2001 09 19.24976 23 16 24.50 -04 17 53.8 19.5   704 – Lincoln Laboratory ETS, New Mexico MPS 36047
2001 09 19.26390 23 16 23.82 -04 17 59.5 20.1   704 – Lincoln Laboratory ETS, New Mexico MPS 36047
2001 09 19.27803 23 16 23.10 -04 18 03.3 20.4   704 – Lincoln Laboratory ETS, New Mexico MPS 36047
2001 09 19.29230 23 16 22.51 -04 18 08.4 20.2   704 – Lincoln Laboratory ETS, New Mexico MPS 36047
2001 09 19.30643 23 16 21.85 -04 18 13.0 20.5   704 – Lincoln Laboratory ETS, New Mexico MPS 36047
2001 09 20.23525 23 15 40.27 -04 23 17.2 20.8 V 691 – Steward Observatory, Kitt Peak-Spacewatch MPS 36047
2001 09 20.25718 23 15 39.25 -04 23 24.4 20.9 V 691 – Steward Observatory, Kitt Peak-Spacewatch MPS 36047
2001 09 20.28359 23 15 38.05 -04 23 33.1 20.8 V 691 – Steward Observatory, Kitt Peak-Spacewatch MPS 36048
2001 09 21.26362 23 14 54.36 -04 28 52.4 20.1   704 – Lincoln Laboratory ETS, New Mexico MPS 36048
2001 09 21.27776 23 14 53.79 -04 28 55.4 20.0   704 – Lincoln Laboratory ETS, New Mexico MPS 36048
2001 09 21.30606 23 14 52.47 -04 29 04.0 20.1   704 – Lincoln Laboratory ETS, New Mexico MPS 36048
2006 08 27.30216 00 00 23.05 +00 25 31.6 21.1   705 – Apache Point MPS 195435
2006 08 27.30300 00 00 23.02 +00 25 31.4 20.6 V 705 – Apache Point MPS 195435
2006 08 28.42099 23 59 45.66 +00 20 49.4 20.5 V 691 – Steward Observatory, Kitt Peak-Spacewatch MPS 190304
2006 08 28.43962 23 59 44.99 +00 20 44.8 20.6 V 691 – Steward Observatory, Kitt Peak-Spacewatch MPS 190304
2006 08 28.45695 23 59 44.41 +00 20 39.9 20.8 V 691 – Steward Observatory, Kitt Peak-Spacewatch MPS 190304
2006 09 15.20054 23 47 39.91 -01 09 33.7   691 – Steward Observatory, Kitt Peak-Spacewatch MPS 190304
2006 09 15.21782 23 47 39.09 -01 09 39.6   691 – Steward Observatory, Kitt Peak-Spacewatch MPS 190304
2006 09 15.23511 23 47 38.30 -01 09 45.2   691 – Steward Observatory, Kitt Peak-Spacewatch MPS 190304
2006 09 23.16115 23 41 34.17 -01 54 45.1 20.6 V 691 – Steward Observatory, Kitt Peak-Spacewatch MPS 190304
2006 09 23.17849 23 41 33.32 -01 54 51.0 20.4 V 691 – Steward Observatory, Kitt Peak-Spacewatch MPS 190304
2006 09 23.19584 23 41 32.52 -01 54 57.0 20.3 V 691 – Steward Observatory, Kitt Peak-Spacewatch MPS 190304
2006 10 27.15603 23 22 49.04 -04 17 52.4 20.5 V G96 – Mt. Lemmon Survey MPS 190304
2006 10 27.16548 23 22 48.93 -04 17 54.2 21.7 V G96 – Mt. Lemmon Survey MPS 190304
2006 10 27.17514 23 22 48.75 -04 17 54.5 20.7 V G96 – Mt. Lemmon Survey MPS 190304
2006 10 27.18463 23 22 48.57 -04 17 55.7 20.6 V G96 – Mt. Lemmon Survey MPS 190304
2006 11 15.10606 23 22 47.56 -04 27 27.7 21.5 V G96 – Mt. Lemmon Survey MPS 190304
2006 11 15.11266 23 22 47.71 -04 27 27.0 21.1 V G96 – Mt. Lemmon Survey MPS 190304
2006 11 15.11941 23 22 47.78 -04 27 26.5 21.0 V G96 – Mt. Lemmon Survey MPS 190304
2006 11 15.12603 23 22 47.85 -04 27 26.1 21.5 V G96 – Mt. Lemmon Survey MPS 190304
2006 11 21.09413 23 24 31.10 -04 18 55.7 20.6 V G96 – Mt. Lemmon Survey MPS 190304
2006 11 21.10323 23 24 31.21 -04 18 54.6 21.0 V G96 – Mt. Lemmon Survey MPS 190304
2006 11 21.11214 23 24 31.42 -04 18 53.5 21.6 V G96 – Mt. Lemmon Survey MPS 190304
2006 11 21.12119 23 24 31.60 -04 18 53.2 21.2 V G96 – Mt. Lemmon Survey MPS 190304
2007 11 05.45061 07 24 42.55 +19 41 31.9 21.6 V G96 – Mt. Lemmon Survey MPS 279566
2007 11 05.45677 07 24 42.66 +19 41 31.9 21.6 V G96 – Mt. Lemmon Survey MPS 279566
2007 11 05.46286 07 24 42.73 +19 41 30.9 21.8 V G96 – Mt. Lemmon Survey MPS 279566
2007 11 05.46895 07 24 42.84 +19 41 30.4 21.6 V G96 – Mt. Lemmon Survey MPS 279566
2007 12 04.44374 07 22 58.08 +19 24 15.5 20.7 V 691 – Steward Observatory, Kitt Peak-Spacewatch MPS 279566
2007 12 04.46136 07 22 57.50 +19 24 16.2 20.9 V 691 – Steward Observatory, Kitt Peak-Spacewatch MPS 279566
2007 12 04.47897 07 22 57.02 +19 24 15.8 21.0 V 691 – Steward Observatory, Kitt Peak-Spacewatch MPS 279566
2009 03 21.45228 13 05 34.04 -06 16 42.4 20.9 V G96 – Mt. Lemmon Survey MPS 281203
2009 03 21.45860 13 05 33.79 -06 16 40.6 21.8 V G96 – Mt. Lemmon Survey MPS 281203
2009 03 21.46646 13 05 33.50 -06 16 38.0 20.8 V G96 – Mt. Lemmon Survey MPS 281203
2009 03 21.47279 13 05 33.18 -06 16 36.1 20.9 V G96 – Mt. Lemmon Survey MPS 281203
2009 04 02.28576 12 56 43.58 -05 14 53.6 20.8 V G96 – Mt. Lemmon Survey MPS 282470
2009 04 02.29525 12 56 43.15 -05 14 50.2 20.4 V G96 – Mt. Lemmon Survey MPS 282470
2009 04 02.30490 12 56 42.64 -05 14 47.3 20.6 V G96 – Mt. Lemmon Survey MPS 282470
2009 04 02.31458 12 56 42.21 -05 14 44.1 20.2 V G96 – Mt. Lemmon Survey MPS 282470
2011 07 03.42814 00 19 52.82 +02 40 51.0 21.3 V G96 – Mt. Lemmon Survey MPS 386273
2011 07 03.43396 00 19 53.11 +02 40 52.2 21.5 V G96 – Mt. Lemmon Survey MPS 386273
2011 07 03.43983 00 19 53.40 +02 40 54.0 20.6 V G96 – Mt. Lemmon Survey MPS 386273
2011 07 03.44563 00 19 53.58 +02 40 55.4 22.1 V G96 – Mt. Lemmon Survey MPS 386273
2011 09 26.17060 00 11 20.43 +00 58 38.6 19.8 R H15 – ISON-NM Observatory, Mayhill MPS 392573
2011 09 26.18452 00 11 19.73 +00 58 34.1 19.8 R H15 – ISON-NM Observatory, Mayhill MPS 392573
2011 09 26.19839 00 11 19.21 +00 58 28.6 19.8 R H15 – ISON-NM Observatory, Mayhill MPS 392573
2011 09 26.21240 00 11 18.43 +00 58 25.6 19.8 R H15 – ISON-NM Observatory, Mayhill MPS 392573
2011 10 03.27199 00 05 54.49 +00 18 16.9 20.1 V G96 – Mt. Lemmon Survey MPS 394183
2011 10 03.27550 00 05 54.31 +00 18 16.0 20.1 V G96 – Mt. Lemmon Survey MPS 394183
2011 10 03.27899 00 05 54.13 +00 18 14.6 20.2 V G96 – Mt. Lemmon Survey MPS 394183
2011 10 03.28245 00 05 53.98 +00 18 13.6 20.2 V G96 – Mt. Lemmon Survey MPS 394183
2011 10 19.26227 23 55 15.49 -01 01 23.5 20.2 V G96 – Mt. Lemmon Survey MPS 396178
2011 10 19.26751 23 55 15.34 -01 01 24.8 19.8 V G96 – Mt. Lemmon Survey MPS 396178
2011 10 19.27274 23 55 15.13 -01 01 26.2 19.9 V G96 – Mt. Lemmon Survey MPS 396178
2011 10 19.27800 23 55 14.95 -01 01 27.5 19.8 V G96 – Mt. Lemmon Survey MPS 396178
2011 10 24.18213 23 52 47.10 -01 20 18.3 20.6 V G96 – Mt. Lemmon Survey MPS 398072
2011 10 24.18729 23 52 46.92 -01 20 19.1 20.6 V G96 – Mt. Lemmon Survey MPS 398072
2011 10 24.19249 23 52 46.77 -01 20 20.1 20.6 V G96 – Mt. Lemmon Survey MPS 398072
2011 10 24.19774 23 52 46.63 -01 20 21.2 20.9 V G96 – Mt. Lemmon Survey MPS 398072
2012 11 13.43413 07 55 35.40 +18 27 53.9 22.6 V G96 – Mt. Lemmon Survey MPS 443280
2012 11 13.44109 07 55 35.50 +18 27 53.4 21.5 V G96 – Mt. Lemmon Survey MPS 443280
